Weather History for 03809 - October, 2012

Change the Weather History Date:

Saturday, October 27, 2012

  Actual Average Record
Temperature  
Mean Temperature 40 °F -  
Max Temperature 48 °F 52 °F - ()
Min Temperature 32 °F 44 °F - ()
Degree Days  
Heating Degree Days 25    
Moisture  
Dew Point 33 °F    
Average Humidity 68    
Maximum Humidity 87    
Minimum Humidity 48    
Precipitation  
Precipitation 0.00 in - - ()
Sea Level Pressure  
Sea Level Pressure 30.16 in    
Wind  
Wind Speed 14 mph ()    
Max Wind Speed 22 mph    
Max Gust Speed 36 mph    
Visibility 8.5 miles    
Events Rain    
T = Trace of Precipitation, MM = Missing Value Source: Averaged Metar Reports

Daily Weather History Graph

Daily Weather History Graph

Search for Another Location

Airport or City:

Trip Planner

Search our weather history database for the weather conditions in past years. The results will help you decide how hot, cold, wet, or windy it might be!

Date:

Astronomy

Oct. 27, 2012 Rise Set
Actual Time 8:03 AM BST 6:05 PM BST
Civil Twilight 7:29 AM BST 6:39 PM BST
Nautical Twilight 6:51 AM BST 7:17 PM BST
Astronomical Twilight 6:14 AM BST 7:54 PM BST
Moon 4:52 PM BST (10/27) 5:34 AM BST (10/27)
Length of Visible Light 11h 09m
Length of Day
10h 02m
Waxing Gibbous, 95% of the Moon is Illuminated
Oct 27
Waxing Gibbous
Oct 29
Full
Nov 7
Last Quarter
Nov 13
New
Nov 20
First Quarter

Hourly Weather History & Observations

Time (BST) Temp. Windchill Dew Point Humidity Pressure Visibility Wind Dir Wind Speed Gust Speed Precip Events Conditions
12:50 AM 43 °F - 33 °F 58% 29.99 in 12 mi NE 17.3 mph - -   Mostly Cloudy
12:50 AM 42.8 °F 34.8 °F 33.8 °F 70% 29.98 in 6.2 mi NE 17.3 mph - N/A   Mostly Cloudy
1:50 AM 42.8 °F 35.4 °F 32.0 °F 66% 29.98 in 6.2 mi NE 15.0 mph - N/A   Mostly Cloudy
2:50 AM 41.0 °F 32.8 °F 32.0 °F 70% 30.01 in 6.2 mi NE 16.1 mph 29.9 mph N/A   Mostly Cloudy
3:50 AM 39 °F - 28 °F 52% 30.04 in 12 mi NE 16.1 mph - -   Scattered Clouds
3:50 AM 39.2 °F 30.5 °F 28.4 °F 65% 30.01 in 6.2 mi NE 16.1 mph - N/A   Partly Cloudy
4:50 AM 35.6 °F 27.5 °F 28.4 °F 75% 30.04 in 6.2 mi NE 11.5 mph - N/A   Partly Cloudy
5:50 AM 33.8 °F 27.0 °F 26.6 °F 75% 30.06 in 6.2 mi NE 8.1 mph - N/A   Partly Cloudy
6:50 AM 36 °F - 29 °F 66% 30.11 in 19 mi NE 13.8 mph - -  
6:50 AM 35.6 °F 26.6 °F 28.4 °F 75% 30.09 in 6.2 mi NE 13.8 mph - N/A   Unknown
7:50 AM 37.4 °F 29.3 °F 30.2 °F 75% 30.09 in 6.2 mi NE 12.7 mph - N/A   Partly Cloudy
8:50 AM 37.4 °F 28.9 °F 32.0 °F 81% 30.15 in 6.2 mi NE 13.8 mph - N/A   Partly Cloudy
9:50 AM 42 °F - 34 °F 63% 30.19 in 19 mi NE 12.7 mph - -   Scattered Clouds
9:50 AM 41.0 °F 33.9 °F 33.8 °F 76% 30.18 in 6.2 mi NE 12.7 mph - N/A   Partly Cloudy
10:50 AM 44.6 °F 36.9 °F 33.8 °F 66% 30.18 in 6.2 mi NE 18.4 mph 32.2 mph N/A   Partly Cloudy
11:50 AM 46.4 °F 39.0 °F 33.8 °F 62% 30.21 in 6.2 mi NE 19.6 mph 35.7 mph N/A   Partly Cloudy
12:50 PM 47 °F - 35 °F 51% 30.23 in 19 mi NNE 18.4 mph - -   Scattered Clouds
12:50 PM 46.4 °F 39.2 °F 33.8 °F 62% 30.21 in 6.2 mi NNE 18.4 mph 32.2 mph N/A   Partly Cloudy
1:50 PM 48.2 °F - 35.6 °F 62% 30.21 in 6.2 mi NNE 21.9 mph 35.7 mph N/A   Partly Cloudy
2:50 PM 48.2 °F - 35.6 °F 62% 30.21 in 6.2 mi NNE 18.4 mph 31.1 mph N/A   Partly Cloudy
3:50 PM 48 °F - 35 °F 48% 30.23 in 19 mi NNE 21.9 mph - -   Scattered Clouds
3:50 PM 48.2 °F - 33.8 °F 58% 30.21 in 6.2 mi NNE 21.9 mph 33.4 mph N/A   Partly Cloudy
4:50 PM 48.2 °F - 37.4 °F 66% 30.21 in 6.2 mi NNE 18.4 mph 32.2 mph N/A   Partly Cloudy
5:50 PM 44.6 °F 37.4 °F 33.8 °F 66% 30.24 in 6.2 mi NNE 16.1 mph - N/A   Partly Cloudy
6:50 PM 44 °F - 34 °F 58% 30.26 in 11 mi NNE 11.5 mph - -   Scattered Clouds
6:50 PM 42.8 °F 36.6 °F 33.8 °F 70% 30.24 in 6.2 mi NNE 11.5 mph - N/A   Partly Cloudy
7:50 PM 44.6 °F 37.4 °F 33.8 °F 66% 30.24 in 6.2 mi NNE 16.1 mph - N/A   Partly Cloudy
8:50 PM 42.8 °F 35.1 °F 39.2 °F 87% 30.24 in 6.2 mi NNE 16.1 mph - N/A Rain Light Rain
9:50 PM 40 °F - 37 °F 85% 30.28 in 12 mi NNE 9.2 mph - - Rain Light Rain
9:50 PM 41.0 °F 35.2 °F 37.4 °F 87% 30.27 in 6.2 mi NNE 9.2 mph - N/A   Partly Cloudy
10:50 PM 42.8 °F 37.5 °F 35.6 °F 76% 30.24 in 6.2 mi North 9.2 mph - N/A   Partly Cloudy
11:50 PM 41.0 °F 36.4 °F 37.4 °F 87% 30.24 in 6.2 mi NNE 6.9 mph - N/A   Scattered Clouds